星链-6198 (STARLINK-6198 )

导读

STARLINK-6198是美国太空探索技术公司(SpaceX)星链(Starlink)卫星互联网项目的一颗卫星,于2023年5月31日发射入轨。作为星链星座的组成部分,它主要承担全球高速互联网接入服务的覆盖任务,为偏远地区、移动载体等提供低延迟网络连接,推动了低轨巨型星座的组网建设。

基本信息
目录编号:
56768
目录名称:
STARLINK-6198
国际标识:
2023-078B
轨道中心:
EARTH
卫星名称:
星链-6198
卫星全名:
星链-6198 (STARLINK-6198 )
卫星状态:
在轨 (已飞行1110 天)
发射日期:
2023-05-31 UTC
国别 :
美国 (US)
星等 :
--
轨道信息
数据来源 国际轨道数据
星历时间: 2026-06-14T12:49:47+0800
15小时前
查看轨道信息
半长轴: 6950.167km
偏心率: 0.0002511
轨道倾角: 70.001°
近地点辐角 266.681°
升交点赤经 80.982°
平近点角 93.406°
近地点: 570.284km
远地点: 573.776km
周期: 96.106分钟
每日圈数: 14.983384
详细信息
固有亮度:
5
最大亮度:
2.5
卫星平台:
Starlink v1.5
覆盖范围:
全球
运营商:
太空探索技术公司
运营商所在国:
美国
制造商(研发单位):
太空探索技术公司
制造商所在国:
美国
使用方式:
暂无
卫星简介
星链(Starlink)计划是由太空探索技术公司(SpaceX)提出的一个巨型低轨卫星互联网星座项目,计划在2019年至2024年间在太空搭建由约1.2万颗卫星组成的“星链”网络,其中1584颗将部署在地球上空550千米处的近地轨道,并从2020年开始工作。该卫星仍在工作。
2D轨道图
3D轨道图
轨道高度分析图
轨道倾角分析图
轨道综合分析图
查看轨道综合分析图